AirNav   Everest Fuels
 
 808 users online  

38I Weller Airport
Urbana, Ohio, USA

GOING TO URBANA?


FAA INFORMATION EFFECTIVE 12 SEPTEMBER 2019

Location

FAA Identifier: 38I
Lat/Long: 40-05-28.2100N 083-41-21.7400W
40-05.470167N 083-41.362333W
40.0911694,-83.6893722
(estimated)
Elevation: 1150 ft. / 351 m (estimated)
Variation: 04W (1985)
From city: 3 miles SE of URBANA, OH
Time zone: UTC -4 (UTC -5 during Standard Time)
Zip code: 43078

Airport Operations

Airport use: Open to the public
Activation date: 11/1966
Control tower: no
ARTCC: INDIANAPOLIS CENTER
FSS: DAYTON FLIGHT SERVICE STATION
NOTAMs facility: DAY (NOTAM-D service available)
Attendance: IREG
Wind indicator: yes
Segmented circle: no

Airport Communications

CTAF/UNICOM: 123.0
WX AWOS-3 at I74 (4 nm NW): 118.325 (937-484-5863)
WX AWOS-3PT at UYF (14 nm SE): 120.85 (740-852-2844)
WX AWOS-3PT at SGH (17 nm SW): 134.975
WX AWOS-3 at MRT (17 nm NE): 119.275 (937-644-2967)
WX AWOS-3 at EDJ (18 nm N): 118.075 (937-599-4654)

Nearby radio navigation aids

VOR radial/distance  VOR name  Freq  Var
SGHr029/16.9SPRINGFIELD VOR/DME113.2004W
RODr131/20.1ROSEWOOD VORTAC117.5005W
DQNr083/32.8DAYTON VOR/DME114.5001W

 
NDB name  Hdg/Dist  Freq  Var  ID
CLARK COUNTY022/13.734104WCCJ -.-. -.-. .---
COURT HOUSE341/32.541406WCSS -.-. ... ...

Airport Services

Parking: tiedowns
Airframe service: NONE
Powerplant service: NONE
Bottled oxygen: NONE
Bulk oxygen: NONE

Runway Information

Runway 9/27

Dimensions: 2534 x 75 ft. / 772 x 23 m
Surface: turf, in good condition
Runway edge markings: 09/27 OUTLINED WITH YELLOW TIRES.
RUNWAY 9  RUNWAY 27
Latitude: 40-05.449167N40-05.491000N
Longitude: 083-41.645000W083-41.079333W
Elevation: 1150.0 ft.1150.0 ft.
Traffic pattern: leftleft
Runway end identifier lights: nono
Obstructions: 75 ft. trees, 40 ft. left of centerline25 ft. pline, 45 ft. from runway, 125 ft. left of centerline, 1:1 slope to clear

Airport Ownership and Management from official FAA records

Ownership: Privately-owned
Owner: CHRISTOPHER COOK
4923 TROY RD
SPRINGFIELD, OH 45502
Phone 937-360-5308
ARPT PHYSICAL LOCATION JUST NORTH OF 3138 EAST ROUTE 29, URBANA OH 43078.
Manager: CHRISTOPHER COOK
4923 TROY RD
SPRINGFIELD, OH 45502
Phone 937-360-5308

Airport Operational Statistics

Aircraft operations: avg 25/month *
67% local general aviation
33% transient general aviation
* for 12-month period ending 03 September 2016

Additional Remarks

FOR CD CTC COLUMBUS APCH AT 614-338-8537

Instrument Procedures

There are no published instrument procedures at 38I.

Some nearby airports with instrument procedures:

I74 - Grimes Field Airport (4 nm NW)
KUYF - Madison County Airport (14 nm SE)
KSGH - Springfield-Beckley Municipal Airport (17 nm SW)
KMRT - Union County Airport (17 nm NE)
KEDJ - Bellefontaine Regional Airport (18 nm N)
 
Loc | Ops | Rwys | IFR | FBO | Links
Com | Nav | Svcs | Stats | Notes
Area around 38I (Weller Airport)
 
Road maps at: MapQuest Bing Google
 
Aerial photo
WARNING: Photo may not be current or correct
Aerial photo of 38I (Weller Airport)
Photo taken 12-Oct-2014
looking north.

Do you have a better or more recent aerial photo of Weller Airport that you would like to share? If so, please send us your photo.

 
Sectional chart

 
Airport distance calculator
Flying to Weller Airport? Find the distance to fly.

From to 38I

Sunrise and sunset
Times for 22-Sep-2019
 Local
(UTC-4)
 Zulu
(UTC)
Morning civil twilight06:5610:56
Sunrise07:2311:23
Sunset19:3223:32
Evening civil twilight19:5923:59

Current date and time
Zulu (UTC)  22-Sep-2019 13:40:18
Local (UTC-4)  22-Sep-2019 09:40:18
 
METAR
KUYF 
14nm SE 
221315Z AUTO 21006KT 10SM CLR 21/18 A3016 RMK AO2
KMRT 
17nm NE 
221317Z AUTO 23006KT 10SM CLR 21/16 A3015 RMK AO2 T02140162
KSGH 
17nm S 
221256Z AUTO 19005KT 10SM CLR 21/17 A3015 RMK AO2 SLP206 T02060167
KEDJ 
18nm N 
221320Z AUTO 18009KT 10SM CLR 21/21 A3015 RMK AO1
KFFO 
23nm SW 
220957Z 11004KT 10SM BKN190 19/16 A3013 RMK AO2A SLP200 T01910161
KDAY 
27nm SW 
221256Z 19008KT 10SM BKN250 23/16 A3015 RMK AO2 SLP201 T02280156
KOSU 
28nm E 
221253Z 19003KT 10SM CLR 21/18 A3015 RMK AO2 SLP205 T02110183
TAF
KFFO 
23nm SW 
220300Z 2203/2309 21006KT 9999 SCT180 QNH3008INS BECMG 2214/2215 21012G18KT 9999 FEW120 QNH3002INS BECMG 2217/2218 22015G25KT 9999 FEW050 SCT120 QNH2997INS BECMG 2222/2223 22012KT 8000 -SHRA SCT040 BKN080 QNH2990INS TX30/2220Z TN18/2210Z
KDAY 
27nm SW 
221132Z 2212/2312 18007KT P6SM BKN200 FM221400 20010KT P6SM SCT250 FM221600 22015G25KT P6SM SCT050 FM222300 21012KT P6SM BKN200 FM230700 22013KT P6SM -SHRA OVC050 WS020/24045KT FM231100 24013KT P6SM VCSH OVC025
NOTAMs
Click for the latest NOTAMs
NOTAMs are issued by the DoD/FAA and will open in a separate window not controlled by AirNav.

 

 
 

Would you like to see your business listed on this page?

 If your business provides an interesting product or service to pilots, flight crews, aircraft, or users of the Weller Airport, you should consider listing it here.  To start the listing process, click on the button below
 
Add a business
 

Other Pages about Weller Airport

Update a link
 
Copyright © AirNav, LLC. All rights reserved. Privacy Policy  Contact